Location: Newark
(55.7816°N, 8.2389°E)
Time: 06:21:56
(UTC+00:00)

X-37B - Visible Passes

Search period start: 18 September 2020 00:00
Search period end: 28 September 2020 00:00
Orbit: 386 x 387 km, 45.0° (Epoch: 15 September)

Date Brightness Start Highest point End Pass type
(mag) Time Alt. Az. Time Alt. Az. Time Alt. Az.
18 Sep 3.0 03:25:04 12° S 03:25:27 12° S 03:26:49 10° SSE visible
19 Sep 3.0 04:01:38 10° SSW 04:02:54 12° S 04:04:12 10° SSE visible
20 Sep 3.2 03:05:36 11° SSE 03:05:36 11° SSE 03:06:06 10° SSE visible
21 Sep 3.1 03:42:06 10° SSW 03:42:06 10° SSW 03:42:43 10° S visible
